Home   Weather   Lillehammer   Past weeks

Flag for Norway Past Weather in Lillehammer, Norway — Yesterday and Last 2 Weeks

Now
38 °F

Chilly.


Feels Like: 38 °F
Forecast: 13 / 24 °F
Wind: 1 mph from Southeast

Location: Lillehammer-Saetherengen

Current Time: Dec 5, 2016 at 9:36:22 am

Latest Report: Dec 5, 2016 at 8:00 am


Visibility: N/A

Pressure: 29.88 "Hg

Humidity: 74%

Dew Point: 31 °F

Location of LillehammerLocation

Past Weather in Lillehammer — Graph

°F

Lillehammer Temperature Yesterday

Maximum temperature yesterday: 28 °F (at 11:00 pm)
Minimum temperature yesterday: 22 °F (at 2:00 am)
Average temperature yesterday: 25 °F

High & Low Weather Summary for the Past Weeks

 TemperatureHumidityPressure
High47 °F (Dec 5, 5:00 am)99% (Nov 21, 3:00 am)30.44 "Hg (Nov 21, 3:00 am)
Low18 °F (Nov 30, 10:00 am)49% (Nov 27, 1:00 pm)29.38 "Hg (Nov 21, 5:00 am)
Average29 °F84%29.92 "Hg
* Reported Nov 20 7:00 am — Dec 5 7:00 am, Lillehammer, Weather by CustomWeather, © 2016

Note: Actual official high and low records may vary slightly from our data, if they occured in-between our weather recording intervals... More about our weather records

Advertising

Lillehammer Weather History for the Previous 24 Hours

Scroll right to see more
 ConditionsComfort  
Time TempWeatherWind HumidityBarometerVisibility
7:00 am
Mon, Dec 5
38 °FChilly.1 mph70%29.86 "HgN/A
6:00 am44 °FQuite cool.2 mph58%29.85 "HgN/A
5:00 am47 °FCool.5 mph53%29.84 "HgN/A
4:00 am43 °FQuite cool.1 mph62%29.85 "HgN/A
3:00 am40 °FQuite cool.2 mph67%29.86 "HgN/A
2:00 am37 °FChilly.3 mph75%29.87 "HgN/A
1:00 am29 °FChilly.1 mph86%29.90 "HgN/A
12:00 am27 °FChilly.1 mph93%29.93 "HgN/A
11:00 pm
Sun, Dec 4
28 °FChilly.2 mph95%29.95 "HgN/A
10:00 pm26 °FChilly.1 mph93%29.97 "HgN/A
7:00 pm27 °FChilly.2 mph93%30.02 "HgN/A
6:00 pm27 °FChilly.2 mph92%30.03 "HgN/A
5:00 pm26 °FChilly.1 mph90%30.04 "HgN/A
4:00 pm26 °FChilly.1 mph90%30.06 "HgN/A
3:00 pm25 °FChilly.1 mph90%30.07 "HgN/A
2:00 pm27 °FChilly.1 mph87%30.07 "HgN/A
1:00 pm26 °FChilly.1 mph90%30.09 "HgN/A
12:00 pm25 °FChilly.1 mph90%30.11 "HgN/A
11:00 am24 °FCold.1 mph92%30.13 "HgN/A
10:00 am24 °FCold.1 mph91%30.13 "HgN/A
9:00 am24 °FCold.1 mph89%30.13 "HgN/A
Weather by CustomWeather, © 2016

See weather overviewHow to use our weather pages